Retour au catalogue

TITAN 3C TRANSTAGE DEB

LostHEO
NORAD 26526·DEBRIS·🇺🇸 United States

Lancé Dec 21, 1965 depuis Cape Canaveral Space Force Station

Loading…

Prochains Passages (prochaines 24 heures)

TLE

PériméSource: Space-Track

Époque: Oct 24, 2024, 05:47 UTC

1 26526U 65108AM  24298.24131281  .00000584  00000-0  35549-2 0  9993
2 26526  27.0953 271.9805 6511654 243.4914 289.0941  3.11000988273876

Suivez TITAN 3C TRANSTAGE DEB en temps réel avec AllMySat

Download on the App Store